CW7054 Weather Reports


time (UTC)temp
C
wind
direction
speed
KPH
gust
KPH
rain 1hr
cm
rain 24hr
cm
rain mn
cm
humidity
%
barometer
mb
20260507123044 10 350 1.6 12.9 0.05 0.64 0.43 93 1009.4
20260507121541 9 317 0.0 12.9 0.05 0.64 0.43 93 1009.4
20260507120041 9 21 0.0 4.8 0.05 0.61 0.41 93 1009.3
20260507114537 9 22 0.0 12.9 0.05 0.61 0.41 93 1008.8
20260507113101 9 11 0.0 14.5 0.05 0.58 0.38 93 1008.9
20260507111535 9 19 0.0 4.8 0.05 0.58 0.38 93 1008.8
20260507110038 9 13 1.6 9.7 0.05 0.56 0.36 93 1008.9
20260507104533 9 47 1.6 6.4 0.08 0.56 0.36 93 1008.6
20260507103032 9 5 1.6 14.5 0.08 0.53 0.33 93 1008.6
20260507101530 9 40 3.2 9.7 0.08 0.53 0.33 93 1008.0
20260507100041 9 28 0.0 8.0 0.08 0.51 0.30 93 1008.0
20260507094526 9 21 1.6 8.0 0.08 0.48 0.28 93 1008.0
20260507093028 10 21 0.0 8.0 0.08 0.46 0.25 93 1008.1
20260507091522 10 292 4.8 12.9 0.10 0.43 0.23 93 1007.4
20260507090021 10 27 1.6 9.7 0.13 0.43 0.23 93 1007.5
20260507084539 10 5 3.2 11.3 0.13 0.41 0.20 93 1007.5
20260507083023 10 5 4.8 8.0 0.10 0.36 0.15 93 1007.7
20260507081516 10 19 3.2 14.5 0.10 0.33 0.13 93 1007.8
20260507080016 11 344 1.6 8.0 0.08 0.30 0.10 92 1007.3
20260507074513 11 5 3.2 16.1 0.05 0.28 0.08 92 1007.0
20260507073010 11 299 4.8 17.7 0.00 0.23 0.03 92 1006.5
20260507071512 12 335 3.2 9.7 0.00 0.23 0.03 93 1007.0
20260507070013 12 11 1.6 8.0 0.03 0.23 0.03 94 1006.7
20260507064504 12 317 1.6 8.0 0.03 0.23 0.03 94 1007.0
20260507063002 13 5 1.6 8.0 0.03 0.23 0.03 94 1006.5
20260507061502 13 355 3.2 6.4 0.03 0.23 0.03 95 1006.6
20260507060100 12 225 0.0 0.0 0.00 0.20 0.00 94 1006.2
20260507054558 12 225 0.0 0.0 0.00 0.20 0.00 94 1006.2
20260507053058 13 225 0.0 1.6 0.00 0.20 0.00 94 1006.5
20260507051603 12 225 0.0 1.6 0.00 0.20 0.00 94 1006.5
20260507050106 12 224 0.0 0.0 0.00 0.20 0.00 94 1006.9
20260507044556 12 224 0.0 6.4 0.00 0.20 0.00 94 1007.2
20260507043053 12 223 0.0 6.4 0.00 0.20 0.00 94 1007.5
20260507041548 12 219 0.0 8.0 0.00 0.20 0.00 94 1007.1
20260507040048 12 203 0.0 4.8 0.00 0.20 0.00 94 1006.9
20260507034545 12 205 0.0 4.8 0.00 0.20 0.20 94 1007.0
20260507033047 12 252 0.0 4.8 0.00 0.20 0.20 94 1007.2
20260507031543 12 165 0.0 8.0 0.00 0.20 0.20 94 1007.3
20260507030045 12 173 0.0 6.4 0.00 0.20 0.20 94 1007.4
20260507024546 12 169 0.0 8.0 0.00 0.20 0.20 94 1007.7
20260507023041 12 168 0.0 8.0 0.00 0.20 0.20 94 1007.7
20260507021553 12 173 0.0 4.8 0.00 0.20 0.20 94 1007.7
20260507020040 12 175 0.0 8.0 0.00 0.20 0.20 94 1007.7
20260507014540 12 217 0.0 8.0 0.00 0.20 0.20 94 1007.8
20260507013039 12 164 0.0 8.0 0.00 0.20 0.20 94 1007.8
20260507011540 12 161 1.6 9.7 0.00 0.20 0.20 94 1008.0
20260507010044 12 209 0.0 4.8 0.00 0.20 0.20 94 1008.1
20260507004638 12 201 1.6 6.4 0.00 0.20 0.20 94 1008.1
20260507003037 12 304 1.6 9.7 0.00 0.20 0.20 94 1008.3
20260507001537 12 249 1.6 9.7 0.00 0.20 0.20 94 1008.3
20260507000037 12 182 1.6 11.3 0.00 0.20 0.20 94 1008.1
20260506234548 12 219 1.6 11.3 0.00 0.20 0.20 94 1007.9
20260506233036 12 249 0.0 9.7 0.00 0.20 0.20 94 1007.8
20260506231535 12 257 3.2 11.3 0.00 0.20 0.20 94 1008.0
20260506230034 12 296 3.2 12.9 0.00 0.20 0.20 94 1007.9
20260506224533 12 249 1.6 11.3 0.00 0.20 0.20 94 1007.7
20260506223031 12 141 0.0 11.3 0.00 0.20 0.20 94 1007.6
20260506221529 12 175 0.0 8.0 0.03 0.20 0.20 93 1007.6
20260506220035 12 171 0.0 8.0 0.08 0.20 0.20 93 1007.4
20260506214528 12 184 1.6 12.9 0.13 0.20 0.20 93 1007.3
20260506213030 12 170 1.6 19.3 0.18 0.20 0.20 93 1007.5
20260506211527 12 159 1.6 11.3 0.15 0.18 0.18 93 1007.5
20260506210028 12 165 1.6 14.5 0.10 0.13 0.13 92 1007.6
20260506204520 12 173 3.2 14.5 0.05 0.08 0.08 91 1007.8
20260506203024 12 171 3.2 14.5 0.00 0.03 0.03 91 1007.9
20260506201516 12 159 1.6 14.5 0.00 0.03 0.03 90 1007.7
20260506200014 13 181 1.6 17.7 0.00 0.03 0.03 90 1007.6
20260506194513 13 175 3.2 11.3 0.00 0.03 0.03 90 1008.0
20260506193012 13 180 3.2 14.5 0.03 0.03 0.03 90 1008.4
20260506191508 13 175 3.2 12.9 0.03 0.03 0.03 91 1008.4
20260506190008 13 173 4.8 14.5 0.03 0.03 0.03 91 1008.3
20260506184505 13 165 3.2 16.1 0.03 0.03 0.03 90 1008.6
20260506183002 13 208 1.6 9.7 0.00 0.00 0.00 90 1008.9
20260506181602 13 183 3.2 12.9 0.00 0.00 0.00 89 1009.2
20260506180100 13 207 3.2 9.7 0.00 0.00 0.00 88 1009.2
20260506174602 13 203 3.2 16.1 0.00 0.00 0.00 87 1009.8
20260506173112 14 188 1.6 16.1 0.00 0.00 0.00 86 1009.9
20260506171600 14 196 1.6 11.3 0.00 0.00 0.00 85 1009.7
20260506170054 14 176 1.6 19.3 0.00 0.00 0.00 85 1009.8
20260506164556 14 165 3.2 16.1 0.00 0.00 0.00 85 1010.2
20260506163054 14 141 4.8 14.5 0.00 0.00 0.00 84 1010.3
20260506161602 15 232 3.2 14.5 0.00 0.00 0.00 83 1010.4
20260506160048 15 194 3.2 17.7 0.00 0.00 0.00 84 1010.8
20260506154546 15 211 3.2 12.9 0.00 0.00 0.00 85 1011.1
20260506153045 14 171 1.6 9.7 0.00 0.00 0.00 85 1011.1
20260506151600 15 167 3.2 14.5 0.00 0.00 0.00 84 1011.2
20260506150044 15 188 3.2 14.5 0.00 0.00 0.00 82 1011.4
20260506144543 15 149 1.6 14.5 0.00 0.00 0.00 84 1011.2
20260506143047 15 198 3.2 11.3 0.00 0.00 0.00 85 1011.2
20260506141540 15 183 3.2 14.5 0.00 0.00 0.00 85 1011.4
20260506140039 14 285 3.2 14.5 0.00 0.00 0.00 86 1011.3
20260506134536 14 225 1.6 16.1 0.00 0.00 0.00 86 1011.4
20260506133040 14 239 1.6 17.7 0.00 0.00 0.00 85 1011.3
20260506131536 14 259 1.6 8.0 0.00 0.00 0.00 85 1011.2
20260506130033 14 149 3.2 16.1 0.00 0.00 0.00 86 1011.4
20260506124534 14 250 3.2 11.3 0.00 0.00 0.00 86 1011.5